AIC45X VEAT-VOHS

Flight info

Callsign AIC45X
Flight time 1h 21m
Altitude 34000
Route CML B593 CEA J4 MEPIP/N0404F240 W136 ANBAS RISOT6
Aircraft A21N/M-L/LB1

Departure

Time 2026-05-05 13:56
Airport Agartala - Maharaja Bir Bikram Airport (VEAT)

Arrival

Time 2026-05-05 15:17
Airport Rajiv Gandhi International Airport (VOHS)
Time Latitude Longitude Altitude Speed Heading
2026-05-05 13:53 23.89718 91.24160 57 ft 0 kts 184°
2026-05-05 13:54 23.89717 91.24160 57 ft 0 kts 184°
2026-05-05 13:55 23.89682 91.24157 58 ft 25 kts 184°
2026-05-05 13:55 23.89226 91.24121 58 ft 105 kts 184°
2026-05-05 13:56 23.88254 91.24045 58 ft 171 kts 184°
2026-05-05 13:56 23.87044 91.23950 807 ft 172 kts 184°
2026-05-05 13:56 23.85887 91.23809 1756 ft 178 kts 187°
2026-05-05 13:56 23.84509 91.23592 2262 ft 217 kts 188°
2026-05-05 13:57 23.82899 91.23359 2928 ft 252 kts 187°
2026-05-05 13:57 23.81048 91.23119 3580 ft 278 kts 186°
2026-05-05 13:57 23.79086 91.22884 4209 ft 293 kts 186°
2026-05-05 13:57 23.77241 91.22673 4774 ft 302 kts 187°
2026-05-05 13:58 23.76993 91.22645 4849 ft 303 kts 187°
2026-05-05 13:58 23.75736 91.22506 5224 ft 308 kts 187°
2026-05-05 13:58 23.73594 91.22271 5852 ft 313 kts 188°
2026-05-05 13:59 23.69224 91.21799 7111 ft 317 kts 189°
2026-05-05 13:59 23.67016 91.21561 7739 ft 318 kts 189°
2026-05-05 14:00 23.62599 91.21086 8987 ft 322 kts 189°
2026-05-05 14:00 23.60349 91.20844 9616 ft 325 kts 189°
2026-05-05 14:00 23.58085 91.20600 10244 ft 328 kts 189°
2026-05-05 14:00 23.55799 91.20355 10873 ft 331 kts 189°
2026-05-05 14:01 23.53488 91.20105 11503 ft 345 kts 189°
2026-05-05 14:01 23.51017 91.19835 12146 ft 365 kts 189°
2026-05-05 14:01 23.48974 91.19611 12651 ft 378 kts 189°
2026-05-05 14:01 23.47591 91.19457 12975 ft 384 kts 188°
2026-05-05 14:02 23.44943 91.18752 13602 ft 397 kts 202°
2026-05-05 14:02 23.42552 91.17213 14236 ft 405 kts 219°
2026-05-05 14:02 23.40622 91.14936 14876 ft 412 kts 236°
2026-05-05 14:02 23.39315 91.12139 15519 ft 426 kts 249°
2026-05-05 14:03 23.38435 91.09013 16169 ft 443 kts 256°
2026-05-05 14:03 23.37771 91.05671 16816 ft 460 kts 258°
2026-05-05 14:03 23.37190 91.02160 17462 ft 477 kts 259°
2026-05-05 14:03 23.36611 90.98535 18104 ft 492 kts 259°
2026-05-05 14:04 23.35988 90.94847 18737 ft 507 kts 259°
2026-05-05 14:04 23.35271 90.91019 19380 ft 518 kts 257°
2026-05-05 14:04 23.34445 90.87176 20011 ft 527 kts 256°
2026-05-05 14:04 23.33487 90.83277 20650 ft 534 kts 254°
2026-05-05 14:05 23.32448 90.79394 21294 ft 539 kts 253°
2026-05-05 14:05 23.31347 90.75489 21917 ft 543 kts 252°
2026-05-05 14:05 23.30209 90.71584 22542 ft 546 kts 252°
2026-05-05 14:05 23.29035 90.67629 23171 ft 547 kts 251°
2026-05-05 14:06 23.27857 90.63698 23927 ft 543 kts 251°
2026-05-05 14:06 23.26700 90.59846 24870 ft 535 kts 251°
2026-05-05 14:06 23.25544 90.55998 25839 ft 527 kts 251°
2026-05-05 14:06 23.24423 90.52246 26818 ft 519 kts 252°
2026-05-05 14:07 23.23320 90.48528 27805 ft 509 kts 252°
2026-05-05 14:07 23.22268 90.44908 28778 ft 500 kts 252°
2026-05-05 14:07 23.21242 90.41305 29772 ft 490 kts 252°
2026-05-05 14:07 23.19586 90.35387 31444 ft 471 kts 253°
2026-05-05 14:08 23.17703 90.28587 33354 ft 450 kts 252°
2026-05-05 14:08 23.16795 90.25299 33281 ft 462 kts 252°
2026-05-05 14:08 23.14912 90.18507 33293 ft 475 kts 252°
2026-05-05 14:09 23.12980 90.11560 33296 ft 482 kts 252°
2026-05-05 14:09 23.11041 90.04608 33294 ft 486 kts 252°
2026-05-05 14:10 23.09054 89.97540 33288 ft 490 kts 252°
2026-05-05 14:10 23.07045 89.90483 33278 ft 491 kts 252°
2026-05-05 14:11 23.05013 89.83395 33296 ft 492 kts 252°
2026-05-05 14:11 23.02973 89.76305 33290 ft 492 kts 252°
2026-05-05 14:12 23.00926 89.69203 33291 ft 492 kts 252°
2026-05-05 14:12 22.98878 89.62110 33291 ft 493 kts 252°
2026-05-05 14:13 22.96826 89.55013 33311 ft 493 kts 252°
2026-05-05 14:13 22.94780 89.47950 33298 ft 492 kts 252°
2026-05-05 14:14 22.92718 89.40844 33294 ft 493 kts 252°
2026-05-05 14:14 22.90658 89.33756 33298 ft 492 kts 252°
2026-05-05 14:15 22.88592 89.26661 33289 ft 493 kts 252°
2026-05-05 14:15 22.86539 89.19623 33286 ft 493 kts 252°
2026-05-05 14:16 22.84469 89.12536 33287 ft 493 kts 252°
2026-05-05 14:16 22.82394 89.05444 33290 ft 493 kts 252°
2026-05-05 14:17 22.80310 88.98337 33287 ft 493 kts 252°
2026-05-05 14:17 22.78402 88.91224 33290 ft 493 kts 254°
2026-05-05 14:18 22.76654 88.84016 33284 ft 493 kts 255°
2026-05-05 14:18 22.74986 88.76831 33288 ft 493 kts 255°
2026-05-05 14:19 22.73332 88.69607 33310 ft 493 kts 255°
2026-05-05 14:19 22.71676 88.62384 33289 ft 493 kts 255°
2026-05-05 14:20 22.70019 88.55200 33292 ft 493 kts 255°
2026-05-05 14:20 22.68318 88.47997 33300 ft 493 kts 253°
2026-05-05 14:21 22.66018 88.41049 33297 ft 493 kts 247°
2026-05-05 14:21 22.63235 88.34242 33283 ft 493 kts 245°
2026-05-05 14:22 22.60308 88.27584 33284 ft 492 kts 244°
2026-05-05 14:22 22.57312 88.20919 33285 ft 492 kts 244°
2026-05-05 14:23 22.54301 88.14246 33299 ft 492 kts 244°
2026-05-05 14:23 22.51302 88.07582 33292 ft 492 kts 244°
2026-05-05 14:24 22.48323 88.00940 33295 ft 492 kts 244°
2026-05-05 14:24 22.45340 87.94269 33291 ft 492 kts 244°
2026-05-05 14:25 22.42360 87.87591 33287 ft 492 kts 244°
2026-05-05 14:25 22.39388 87.80924 33288 ft 492 kts 244°
2026-05-05 14:26 22.36438 87.74304 33287 ft 492 kts 244°
2026-05-05 14:26 22.33466 87.67639 33292 ft 492 kts 244°
2026-05-05 14:27 22.30980 87.62067 33288 ft 492 kts 244°
2026-05-05 14:27 22.28019 87.55434 33297 ft 492 kts 244°
2026-05-05 14:28 22.25033 87.48756 33289 ft 492 kts 244°
2026-05-05 14:28 22.22052 87.42094 33294 ft 492 kts 244°
2026-05-05 14:29 22.19092 87.35488 33290 ft 492 kts 244°
2026-05-05 14:29 22.16094 87.28807 33290 ft 492 kts 244°
2026-05-05 14:30 22.13147 87.22249 33292 ft 492 kts 244°
2026-05-05 14:30 22.10081 87.15437 33289 ft 492 kts 244°
2026-05-05 14:31 22.07111 87.08845 33290 ft 492 kts 244°
2026-05-05 14:31 22.04115 87.02207 33292 ft 492 kts 244°
2026-05-05 14:32 22.01112 86.95560 33286 ft 492 kts 244°
2026-05-05 14:32 21.98112 86.88928 33299 ft 492 kts 244°
2026-05-05 14:33 21.95123 86.82329 33297 ft 492 kts 244°
2026-05-05 14:33 21.92112 86.75688 33294 ft 492 kts 244°
2026-05-05 14:34 21.89114 86.69084 33290 ft 492 kts 244°
2026-05-05 14:34 21.86104 86.62463 33291 ft 492 kts 244°
2026-05-05 14:35 21.83094 86.55848 33292 ft 492 kts 244°
2026-05-05 14:35 21.80072 86.49217 33295 ft 492 kts 244°
2026-05-05 14:36 21.77054 86.42605 33286 ft 492 kts 243°
2026-05-05 14:36 21.74035 86.35997 33288 ft 493 kts 243°
2026-05-05 14:37 21.71005 86.29374 33293 ft 491 kts 243°
2026-05-05 14:37 21.67997 86.22807 33281 ft 492 kts 243°
2026-05-05 14:38 21.64968 86.16200 33283 ft 492 kts 243°
2026-05-05 14:38 21.61941 86.09607 33291 ft 492 kts 243°
2026-05-05 14:39 21.58900 86.02990 33292 ft 493 kts 243°
2026-05-05 14:39 21.55880 85.96432 33293 ft 492 kts 243°
2026-05-05 14:40 21.52821 85.89817 33289 ft 493 kts 243°
2026-05-05 14:40 21.49769 85.83234 33288 ft 493 kts 243°
2026-05-05 14:41 21.46707 85.76642 33292 ft 493 kts 243°
2026-05-05 14:41 21.43647 85.70063 33288 ft 493 kts 243°
2026-05-05 14:42 21.40588 85.63492 33285 ft 493 kts 243°
2026-05-05 14:42 21.37523 85.56914 33287 ft 493 kts 243°
2026-05-05 14:43 21.34458 85.50345 33287 ft 492 kts 243°
2026-05-05 14:43 21.31404 85.43790 33296 ft 492 kts 243°
2026-05-05 14:44 21.28345 85.37208 33289 ft 492 kts 243°
2026-05-05 14:44 21.25290 85.30631 33291 ft 492 kts 243°
2026-05-05 14:45 21.22234 85.24058 33288 ft 492 kts 243°
2026-05-05 14:45 21.19181 85.17495 33293 ft 492 kts 243°
2026-05-05 14:46 21.16122 85.10928 33287 ft 492 kts 243°
2026-05-05 14:46 21.13058 85.04358 33293 ft 493 kts 243°
2026-05-05 14:47 21.10005 84.97820 33291 ft 492 kts 243°
2026-05-05 14:47 21.06720 84.91354 33298 ft 492 kts 239°
2026-05-05 14:48 21.03186 84.85074 33293 ft 492 kts 238°
2026-05-05 14:48 20.99576 84.78909 33296 ft 492 kts 237°
2026-05-05 14:49 20.95888 84.72697 33288 ft 492 kts 237°
2026-05-05 14:49 20.92222 84.66546 33297 ft 492 kts 237°
2026-05-05 14:50 20.88544 84.60375 33294 ft 490 kts 237°
2026-05-05 14:50 20.84873 84.54208 33287 ft 488 kts 237°
2026-05-05 14:51 20.81234 84.48092 33289 ft 487 kts 237°
2026-05-05 14:51 20.77626 84.42025 33293 ft 486 kts 237°
2026-05-05 14:52 20.73990 84.35912 33290 ft 486 kts 237°
2026-05-05 14:52 20.70362 84.29814 33297 ft 486 kts 237°
2026-05-05 14:53 20.66731 84.23713 33284 ft 486 kts 237°
2026-05-05 14:53 20.63117 84.17648 33289 ft 486 kts 237°
2026-05-05 14:54 20.59482 84.11552 33282 ft 485 kts 237°
2026-05-05 14:54 20.55853 84.05471 33287 ft 485 kts 237°
2026-05-05 14:55 20.52225 83.99398 33293 ft 485 kts 237°
2026-05-05 14:55 20.48630 83.93362 33293 ft 485 kts 238°
2026-05-05 14:56 20.45071 83.87216 33297 ft 486 kts 238°
2026-05-05 14:56 20.41577 83.81082 33293 ft 486 kts 239°
2026-05-05 14:57 20.38082 83.74913 33293 ft 485 kts 239°
2026-05-05 14:57 20.34579 83.68725 33288 ft 485 kts 239°
2026-05-05 14:58 20.21796 83.46202 33287 ft 485 kts 239°
2026-05-05 14:58 20.07776 83.21626 33289 ft 485 kts 238°
2026-05-05 14:59 19.93781 82.97199 33290 ft 485 kts 238°
2026-05-05 14:59 19.79767 82.72585 33285 ft 486 kts 239°
2026-05-05 15:00 19.68157 82.52159 33296 ft 485 kts 239°
2026-05-05 15:00 19.51885 82.23650 33299 ft 485 kts 238°
2026-05-05 15:01 19.37773 81.99092 33285 ft 486 kts 238°
2026-05-05 15:01 19.23461 81.75043 33296 ft 485 kts 237°
2026-05-05 15:02 19.08969 81.50850 33288 ft 485 kts 237°
2026-05-05 15:02 18.94462 81.26709 33290 ft 485 kts 237°
2026-05-05 15:03 18.79938 81.02628 33295 ft 485 kts 237°
2026-05-05 15:03 18.65477 80.78740 33280 ft 459 kts 237°
2026-05-05 15:04 18.59106 80.68244 32745 ft 411 kts 237°
2026-05-05 15:04 18.52369 80.58696 30823 ft 401 kts 216°
2026-05-05 15:04 18.45738 80.55299 29394 ft 401 kts 201°
2026-05-05 15:04 18.31443 80.50443 26101 ft 407 kts 199°
2026-05-05 15:05 18.09790 80.43186 21136 ft 407 kts 199°
2026-05-05 15:05 17.99075 80.39532 18643 ft 406 kts 199°
2026-05-05 15:05 17.91916 80.37084 16977 ft 404 kts 199°
2026-05-05 15:06 17.86328 80.35173 15670 ft 403 kts 199°
2026-05-05 15:06 17.80963 80.33337 14411 ft 401 kts 199°
2026-05-05 15:06 17.75713 80.31543 13172 ft 399 kts 199°
2026-05-05 15:06 17.70402 80.29728 11914 ft 397 kts 199°
2026-05-05 15:07 17.65218 80.27957 10676 ft 395 kts 199°
2026-05-05 15:07 17.60035 80.26187 9481 ft 388 kts 199°
2026-05-05 15:07 17.54935 80.24447 8238 ft 386 kts 199°
2026-05-05 15:07 17.49868 80.22720 7605 ft 367 kts 199°
2026-05-05 15:08 17.45149 80.21117 7595 ft 333 kts 200°
2026-05-05 15:08 17.40985 80.19702 7597 ft 301 kts 200°
2026-05-05 15:08 17.37213 80.18417 7594 ft 273 kts 200°
2026-05-05 15:08 17.33755 80.17238 7593 ft 245 kts 200°
2026-05-05 15:09 17.30667 80.16185 7591 ft 219 kts 200°
2026-05-05 15:09 17.25620 80.14460 7593 ft 182 kts 202°
2026-05-05 15:09 17.24069 80.09582 7606 ft 202 kts 269°
2026-05-05 15:09 17.24191 80.03829 7599 ft 196 kts 268°
2026-05-05 15:10 17.24194 79.98172 7600 ft 196 kts 267°
2026-05-05 15:10 17.24169 79.92438 7606 ft 196 kts 266°
2026-05-05 15:10 17.24137 79.86726 7598 ft 196 kts 267°
2026-05-05 15:10 17.24104 79.81082 7601 ft 196 kts 267°
2026-05-05 15:11 17.24068 79.75348 7596 ft 196 kts 267°
2026-05-05 15:11 17.24032 79.69704 7597 ft 196 kts 267°
2026-05-05 15:11 17.23994 79.64127 7602 ft 195 kts 267°
2026-05-05 15:11 17.23951 79.58143 7597 ft 196 kts 266°
2026-05-05 15:12 17.23813 79.40244 7606 ft 196 kts 267°
2026-05-05 15:12 17.23615 79.17431 7600 ft 196 kts 266°
2026-05-05 15:12 17.23392 78.94662 7443 ft 202 kts 266°
2026-05-05 15:12 17.23226 78.72128 6821 ft 194 kts 267°
2026-05-05 15:13 17.23172 78.62516 6493 ft 192 kts 268°
2026-05-05 15:13 17.23181 78.62200 6493 ft 191 kts 269°
2026-05-05 15:14 17.23196 78.61454 6498 ft 191 kts 268°
2026-05-05 15:14 17.23168 78.60015 6065 ft 210 kts 266°
2026-05-05 15:14 17.23115 78.58420 5499 ft 227 kts 266°
2026-05-05 15:15 17.23066 78.56692 4804 ft 246 kts 267°
2026-05-05 15:15 17.23032 78.54953 4165 ft 259 kts 268°
2026-05-05 15:15 17.23022 78.53674 3995 ft 248 kts 269°
2026-05-05 15:15 17.23023 78.51877 3357 ft 251 kts 269°
2026-05-05 15:16 17.23000 78.50115 3262 ft 228 kts 268°
2026-05-05 15:16 17.22957 78.48487 2704 ft 220 kts 267°
2026-05-05 15:16 17.22912 78.46994 2357 ft 192 kts 268°
2026-05-05 15:16 17.22908 78.45702 2128 ft 167 kts 269°
2026-05-05 15:17 17.22910 78.44557 2036 ft 150 kts 269°
2026-05-05 15:17 17.22891 78.43575 2036 ft 113 kts 268°
2026-05-05 15:17 17.22875 78.42913 2036 ft 69 kts 270°
2026-05-05 15:17 17.22889 78.42685 2036 ft 7 kts 294°
2026-05-05 15:18 17.22916 78.42624 2036 ft 12 kts 293°
2026-05-05 15:18 17.22961 78.42522 2036 ft 18 kts 299°
2026-05-05 15:18 17.23036 78.42389 2036 ft 24 kts 301°
2026-05-05 15:18 17.23096 78.42248 2036 ft 19 kts 314°
2026-05-05 15:19 17.23221 78.42229 2036 ft 14 kts 334°
2026-05-05 15:19 17.23236 78.42141 2036 ft 15 kts 272°
2026-05-05 15:19 17.23244 78.42009 2036 ft 20 kts 299°
2026-05-05 15:19 17.23317 78.41987 2036 ft 0 kts